TimeCDT,TemperatureF,Dew PointF,Humidity,Sea Level PressureIn,VisibilityMPH,Wind Direction,Wind SpeedMPH,Gust SpeedMPH,PrecipitationIn,Events,Conditions,WindDirDegrees,DateUTC
12:15 AM,67.1,33.8,29,30.13,10.0,Calm,Calm,-,N/A,,Clear,0,2013-05-02 05:15:00
12:35 AM,67.8,34.3,29,30.14,10.0,North,3.5,-,N/A,,Clear,350,2013-05-02 05:35:00
12:55 AM,68.5,39.9,35,30.17,10.0,NNE,16.1,20.7,N/A,,Clear,30,2013-05-02 05:55:00
1:15 AM,66.4,42.8,42,30.19,10.0,NNE,16.1,21.9,N/A,,Clear,20,2013-05-02 06:15:00
1:35 AM,64.2,43.5,47,30.22,10.0,NNE,18.4,28.8,N/A,,Scattered Clouds,30,2013-05-02 06:35:00
2:15 AM,52.7,38.7,59,30.26,7.0,North,24.2,33.4,N/A,,Overcast,10,2013-05-02 07:15:00
2:35 AM,50.0,37.8,63,30.27,7.0,NNE,25.3,34.5,N/A,,Overcast,20,2013-05-02 07:35:00
2:55 AM,47.8,37.4,67,30.28,7.0,NNE,21.9,31.1,N/A,,Overcast,20,2013-05-02 07:55:00
3:15 AM,47.1,37.4,69,30.30,7.0,NNE,21.9,27.6,N/A,,Overcast,20,2013-05-02 08:15:00
3:35 AM,46.0,36.7,70,30.31,7.0,NNE,18.4,28.8,N/A,,Overcast,20,2013-05-02 08:35:00
3:55 AM,45.7,36.5,70,30.32,7.0,NNE,17.3,21.9,N/A,,Overcast,30,2013-05-02 08:55:00
4:15 AM,45.3,35.8,69,30.34,7.0,NE,16.1,-,N/A,,Overcast,40,2013-05-02 09:15:00
4:35 AM,43.9,35.1,71,30.34,7.0,NNE,17.3,23.0,N/A,,Overcast,20,2013-05-02 09:35:00
4:55 AM,43.2,35.1,73,30.34,7.0,NNE,17.3,20.7,N/A,,Overcast,30,2013-05-02 09:55:00
5:15 AM,42.6,34.7,74,30.36,7.0,NNE,18.4,24.2,N/A,,Overcast,30,2013-05-02 10:15:00
5:35 AM,41.9,34.7,76,30.37,7.0,NNE,18.4,-,N/A,,Overcast,30,2013-05-02 10:35:00
5:55 AM,41.4,34.5,77,30.38,7.0,NNE,16.1,-,N/A,,Overcast,30,2013-05-02 10:55:00
6:15 AM,41.2,34.0,76,30.39,7.0,NE,17.3,-,N/A,,Overcast,40,2013-05-02 11:15:00
6:35 AM,41.2,34.0,76,30.40,7.0,NNE,16.1,-,N/A,,Overcast,30,2013-05-02 11:35:00
6:55 AM,41.0,34.0,76,30.41,7.0,NNE,15.0,18.4,N/A,,Overcast,20,2013-05-02 11:55:00
7:15 AM,40.5,33.8,77,30.43,7.0,NE,18.4,25.3,N/A,,Overcast,40,2013-05-02 12:15:00
7:35 AM,39.6,34.7,83,30.43,7.0,NE,13.8,21.9,N/A,,Overcast,50,2013-05-02 12:35:00
7:55 AM,39.4,35.2,85,30.44,7.0,NNE,17.3,20.7,N/A,,Overcast,30,2013-05-02 12:55:00
8:55 AM,38.5,35.1,87,30.47,10.0,NNE,19.6,24.2,N/A,,Overcast,30,2013-05-02 13:55:00
9:35 AM,38.5,33.6,83,30.48,10.0,NNE,17.3,-,N/A,,Overcast,30,2013-05-02 14:35:00
9:55 AM,38.3,33.4,83,30.49,10.0,NNE,17.3,23.0,N/A,,Overcast,20,2013-05-02 14:55:00
10:15 AM,38.1,32.9,81,30.49,10.0,NNE,20.7,29.9,N/A,,Overcast,20,2013-05-02 15:15:00
10:55 AM,38.7,31.1,74,30.51,10.0,North,21.9,27.6,N/A,,Overcast,10,2013-05-02 15:55:00
12:55 PM,40.6,28.8,63,30.55,10.0,NNE,18.4,26.5,N/A,,Overcast,30,2013-05-02 17:55:00
1:15 PM,40.6,28.4,62,30.55,10.0,North,20.7,26.5,N/A,,Overcast,10,2013-05-02 18:15:00
2:35 PM,44.8,28.4,53,30.53,10.0,NNE,19.6,29.9,N/A,,Overcast,20,2013-05-02 19:35:00
4:35 PM,49.3,27.9,44,30.48,10.0,NE,19.6,29.9,N/A,,Scattered Clouds,40,2013-05-02 21:35:00
5:35 PM,52.2,27.5,39,30.47,10.0,NNE,21.9,29.9,N/A,,Clear,30,2013-05-02 22:35:00
6:35 PM,51.8,26.6,38,30.46,10.0,NNE,20.7,29.9,N/A,,Clear,30,2013-05-02 23:35:00
6:55 PM,51.1,26.1,38,30.47,10.0,NNE,18.4,26.5,N/A,,Clear,30,2013-05-02 23:55:00
7:15 PM,50.2,25.7,39,30.47,10.0,NNE,21.9,31.1,N/A,,Clear,20,2013-05-03 00:15:00
7:35 PM,49.1,25.5,40,30.47,10.0,NE,21.9,29.9,N/A,,Clear,40,2013-05-03 00:35:00
7:55 PM,48.0,25.2,41,30.47,10.0,NE,21.9,28.8,N/A,,Clear,40,2013-05-03 00:55:00
8:35 PM,46.8,25.3,43,30.48,10.0,NE,19.6,24.2,N/A,,Clear,40,2013-05-03 01:35:00
8:55 PM,46.4,25.2,43,30.49,10.0,NE,18.4,24.2,N/A,,Clear,40,2013-05-03 01:55:00
9:15 PM,46.0,24.8,43,30.50,10.0,NE,16.1,25.3,N/A,,Clear,40,2013-05-03 02:15:00
9:35 PM,45.5,24.4,44,30.50,10.0,NE,17.3,-,N/A,,Clear,40,2013-05-03 02:35:00
9:55 PM,44.6,23.9,44,30.51,10.0,NE,18.4,-,N/A,,Clear,50,2013-05-03 02:55:00
10:15 PM,44.1,23.7,45,30.52,10.0,NE,16.1,-,N/A,,Clear,40,2013-05-03 03:15:00
10:35 PM,43.2,23.4,46,30.53,10.0,NE,15.0,-,N/A,,Clear,50,2013-05-03 03:35:00
10:55 PM,42.6,23.0,46,30.53,10.0,NE,15.0,-,N/A,,Clear,50,2013-05-03 03:55:00
11:15 PM,42.1,23.0,47,30.54,10.0,NE,19.6,24.2,N/A,,Clear,40,2013-05-03 04:15:00
11:35 PM,41.4,23.0,48,30.54,10.0,NE,15.0,-,N/A,,Clear,50,2013-05-03 04:35:00
11:55 PM,41.0,23.0,49,30.54,10.0,NE,12.7,-,N/A,,Clear,50,2013-05-03 04:55:00